Theta_e
291 289 288 287 287 288 287 287 287 287 287 287 287 288 289 289 290 290 290 291 291 292 293 293 294 295 296
288 287 287 287 287 287 287 286 286 286 286 287 287 288 288 288 289 289 290 290 290 290 291 291 292 292 293
287 288 287 286 287 287 287 286 286 285 286 286 286 287 287 288 288 288 288 289 289 289 289 289 290 290 291
288 288 288 288 288 287 287 286 286 286 286 286 286 286 286 287 287 287 287 287 287 288 288 288 289 289 290
289 289 288 288 287 286 285 285 286 286 286 286 286 286 286 286 286 286 286 286 287 287 288 288 289 289 290
288 288 288 287 285 285 285 286 286 285 286 286 286 286 286 286 286 286 286 286 286 287 287 288 288 289 289
287 286 285 284 285 285 285 285 285 285 285 285 285 285 286 285 285 285 285 286 286 286 287 287 287 288 289
284 284 284 285 285 285 285 285 285 285 285 285 285 285 285 285 285 285 285 285 286 286 286 286 287 287 287
283 284 284 284 283 283 284 285 284 284 284 284 285 285 284 284 284 284 284 284 284 285 285 285 286 286 286
284 283 283 283 282 282 283 283 282 283 285 283 283 283 283 283 284 284 284 284 284 284 284 284 285 284 284
282 283 283 283 283 283 282 282 281 281 282 282 282 281 281 282 282 283 283 283 284 284 284 284 284 284 284
282 283 283 283 283 282 281 281 280 280 281 280 279 279 280 280 281 282 283 283 283 283 284 284 284 284 284
283 283 282 281 280 281 282 281 280 281 281 281 279 279 279 279 281 281 282 283 282 283 283 283 283 283 283
281 281 281 281 281 281 281 280 280 281 282 282 281 280 280 280 281 281 282 283 283 283 284 284 283 283 283
280 280 280 281 281 281 280 280 281 282 282 283 283 282 282 281 282 282 282 283 284 284 284 284 284 284 284
279 279 279 280 280 280 281 282 282 282 282 283 283 283 284 285 284 284 284 285 286 286 286 286 286 286 286
278 278 278 279 280 280 281 282 282 283 283 283 284 285 285 286 286 286 286 286 286 286 286 287 287 287 287
Wind_Speed
14 17 17 16 13 15 17 19 19 19 21 22 21 21 23 25 25 24 25 27 28 28 29 29 30 31 31
10 11 14 14 14 17 17 18 18 20 21 22 22 23 23 22 23 24 25 27 28 29 30 31 32 33 34
9 11 15 14 15 17 18 18 18 20 20 21 21 21 22 23 25 27 28 28 29 29 30 31 32 33 33
11 12 15 13 15 17 18 17 19 19 20 20 20 20 23 24 26 27 27 26 26 27 28 29 30 31 32
12 13 14 14 15 16 18 18 21 20 18 16 20 23 24 24 24 23 23 25 27 27 29 30 32 32 33
12 14 15 15 15 15 18 18 14 16 13 24 23 24 25 24 25 28 29 29 28 28 29 30 29 30 31
15 16 16 15 14 16 16 17 19 24 22 23 23 24 22 24 26 30 31 30 28 27 26 27 29 28 28
14 16 15 14 16 17 20 21 22 22 18 19 24 23 24 26 29 30 29 28 27 27 27 28 29 30 30
13 15 15 17 16 15 16 17 17 22 21 17 18 23 26 31 22 20 22 24 27 30 31 30 29 29 31
11 13 12 12 12 11 11 13 15 13 7 7 19 20 8 21 16 24 23 23 27 30 30 29 28 28 27
11 11 10 10 10 9 11 13 15 18 24 16 16 22 17 20 22 24 29 29 25 27 27 26 24 22 24
10 11 12 12 12 13 16 16 17 25 31 23 15 19 21 24 21 24 25 29 28 26 22 23 24 24 25
11 13 13 15 17 16 19 20 20 23 24 22 22 24 22 25 27 34 28 26 30 25 20 22 24 24 25
12 14 14 13 16 16 19 21 23 23 19 22 21 22 25 26 27 31 29 17 27 28 28 27 27 27 28
11 13 13 13 15 16 17 21 20 24 26 24 19 22 27 30 33 27 29 28 29 30 28 29 29 28 29
12 12 13 14 16 18 18 19 21 22 24 27 26 26 24 22 28 32 28 28 30 28 27 25 28 26 24
12 13 13 14 17 19 21 20 22 22 23 27 24 21 12 12 22 20 27 28 30 29 26 24 27 33 26
Wind_Direction
277 273 268 267 276 283 287 287 286 284 288 292 293 292 289 287 286 286 285 285 284 283 282 280 278 278 279
262 264 271 282 289 293 291 288 288 290 292 294 293 293 290 288 289 287 285 284 283 282 281 280 279 280 279
261 275 278 286 293 289 291 291 295 295 298 297 296 295 293 293 288 285 284 283 281 281 280 279 278 277 276
275 281 279 285 286 289 296 298 301 303 301 298 299 300 296 292 288 287 286 285 284 283 281 279 276 275 273
275 280 289 292 293 299 298 307 305 303 303 306 307 301 296 295 293 291 288 288 287 286 283 281 279 277 274
283 280 291 296 296 298 304 306 312 313 301 303 300 297 297 293 290 289 290 291 289 285 282 281 279 278 277
288 289 291 291 298 294 294 291 288 291 296 295 300 298 298 293 290 289 291 291 289 288 286 283 281 278 275
282 284 285 290 290 291 293 292 292 292 297 290 295 292 296 292 291 289 287 286 286 287 286 285 282 280 276
283 283 286 289 287 287 284 291 296 299 301 287 291 302 299 293 294 289 287 286 286 286 287 287 284 280 277
304 299 293 289 285 274 278 283 293 301 305 279 300 315 299 293 290 294 292 289 289 287 286 285 283 281 276
301 300 299 299 294 284 279 271 274 269 282 299 295 293 281 287 291 291 288 290 291 291 290 286 280 273 270
305 306 308 305 298 294 292 285 272 268 295 290 275 278 281 286 286 294 290 291 290 287 287 285 284 279 271
304 303 304 301 304 308 309 307 301 298 301 301 278 274 267 269 277 288 300 300 293 285 287 283 281 281 279
299 299 302 302 301 308 308 312 310 306 301 301 285 272 269 272 272 279 286 285 290 291 290 287 284 277 271
301 301 302 302 303 311 305 307 298 303 306 305 296 284 273 271 278 275 282 285 287 291 290 284 281 277 271
303 300 299 302 306 309 308 301 301 298 298 303 309 305 297 281 268 272 279 280 289 292 290 286 289 287 277
299 297 294 296 305 306 303 301 301 300 298 295 297 301 297 297 302 290 290 292 293 292 289 284 284 290 289